SCP
0 0 0 0 0 0 0 0 0 0 0 0 0 0 0 0 0 0 -0 0 0 -0 0 0 0 0 1 0 0 0 0 0 0 0 0 0 0 0 0 0 0 0 0 0 0 0 0 1 1
0 0 0 0 0 0 0 0 0 0 0 0 0 0 0 0 0 0 -0 -0 -0 0 0 0 0 0 1 1 0 0 0 0 0 0 0 0 0 0 0 0 0 0 0 0 0 0 0 1 1
0 0 0 0 0 0 0 0 0 0 0 0 0 0 0 0 0 0 -0 -0 0 0 0 0 0 0 0 0 1 1 1 0 0 0 0 0 0 0 0 0 0 0 0 0 0 0 0 1 1
-0 0 0 0 0 0 0 0 0 0 0 0 0 0 0 0 0 0 0 0 0 0 0 0 0 0 0 0 0 0 0 0 1 0 0 0 0 0 0 0 0 0 0 0 0 0 0 1 1
0 0 0 0 0 0 0 0 0 0 0 0 0 0 0 0 0 0 0 0 0 0 0 0 0 0 0 0 0 0 0 0 0 0 0 0 0 0 0 0 0 0 0 0 0 0 0 1 1
-0 0 0 0 0 0 0 0 0 0 0 0 0 0 0 0 0 0 0 0 0 0 0 0 0 0 0 0 0 0 0 0 0 0 0 1 0 0 0 0 0 0 0 0 0 0 0 1 1
-0 -0 0 0 0 0 0 0 0 0 0 0 0 0 0 -0 0 0 0 0 0 0 0 0 0 0 0 0 0 0 0 0 0 0 0 1 1 0 0 0 0 0 0 0 0 0 1 1 1
-0 0 0 0 0 0 0 0 0 0 0 0 0 0 0 0 0 0 0 0 0 0 0 0 0 0 0 0 0 0 0 0 0 0 1 1 1 0 0 0 0 0 1 0 0 0 0 1 1
-0 0 0 0 0 0 0 0 0 0 0 0 0 0 0 0 0 0 0 0 0 0 0 0 0 0 0 0 0 0 0 0 0 0 0 0 0 0 0 0 0 0 0 1 1 0 0 1 1
0 0 0 0 0 0 0 0 0 0 0 0 0 0 0 0 0 0 0 0 0 0 0 0 0 0 0 0 0 0 0 0 0 0 0 0 0 0 0 0 0 0 0 0 1 1 1 1 1
0 0 0 0 0 0 0 0 0 0 0 0 0 0 0 0 0 0 0 0 0 0 0 0 0 0 0 0 0 0 0 0 0 1 1 1 1 0 0 0 0 0 0 0 1 1 1 1 0
0 0 0 0 0 0 0 0 0 0 0 0 0 0 0 0 0 0 0 0 0 0 0 0 0 0 0 0 0 0 0 0 0 0 0 0 0 1 1 1 1 1 1 0 0 0 0 0 0
0 0 0 0 0 0 0 0 0 0 0 0 0 0 0 0 0 0 0 0 0 0 0 -0 -0 -0 -0 -0 -0 0 0 0 0 0 0 0 0 0 1 1 2 1 0 0 0 0 0 0 0
0 0 0 0 0 0 0 0 0 0 0 0 0 0 0 0 0 0 0 0 0 -0 -0 -0 -0 -0 -0 -0 -0 -0 0 0 0 0 0 0 0 0 0 1 1 0 0 0 0 0 0 0 0
0 0 0 0 0 0 0 0 0 0 0 0 0 0 0 0 0 0 0 0 -0 -0 -0 -0 -0 -0 -0 -0 -0 -0 -0 -0 0 0 0 0 0 0 0 0 1 1 0 0 0 0 0 0 0
0 0 0 0 0 0 0 0 0 0 0 0 0 0 0 0 0 0 0 0 0 -0 -0 -0 -0 0 0 0 0 0 -0 -0 -0 0 0 0 0 0 0 1 1 1 0 0 0 0 0 0 0
0 0 0 0 0 0 0 0 0 0 0 0 0 0 0 0 0 0 0 0 0 -0 -0 0 0 0 0 0 0 0 0 0 -0 0 0 0 0 0 0 1 1 1 1 0 0 0 0 0 0
0 0 0 0 0 0 0 0 0 0 0 0 0 0 0 0 0 0 0 0 0 -0 0 0 0 0 0 0 0 0 0 0 0 0 0 0 0 0 0 0 1 0 0 0 0 0 0 0 0
0 0 0 0 0 0 0 0 0 0 0 0 0 0 0 0 0 0 0 0 0 0 0 0 0 0 0 0 0 0 0 0 0 0 0 -0 0 0 -0 0 0 0 1 0 0 0 0 0 0
0 0 0 0 0 0 0 0 0 0 0 0 0 0 0 0 0 0 0 0 0 0 0 0 0 0 0 0 0 0 0 0 0 0 0 0 -0 -0 -0 -0 0 0 0 0 0 0 0 0 0
0 0 0 0 0 0 0 0 0 0 0 0 0 0 0 0 0 0 0 0 0 0 0 0 0 0 0 0 0 0 0 0 0 0 0 0 -0 -0 -0 -0 -0 0 0 0 0 0 0 0 0
0 0 0 0 0 0 0 0 0 0 0 0 0 0 0 0 0 0 0 0 0 0 0 0 0 0 0 0 0 0 0 0 0 0 0 0 -0 -0 -0 -0 -0 -0 0 0 0 0 0 0 0
0 0 0 0 0 0 0 0 0 0 0 0 0 0 0 0 0 0 -0 0 0 0 0 0 0 0 0 0 0 0 0 0 -0 0 0 -0 -0 -0 -0 -0 -0 -0 0 0 0 0 0 0 0
0 0 0 0 0 0 0 0 0 0 0 0 0 0 0 0 0 0 0 0 0 0 0 0 0 0 0 0 0 0 0 0 -0 -0 0 -0 -0 -0 -0 -0 -0 -0 0 0 0 0 0 0 0
0 0 0 0 0 0 0 0 0 0 0 0 0 0 0 0 0 0 0 0 0 0 0 0 0 0 0 0 0 0 0 -0 -0 -0 0 0 -0 -0 -0 -0 -0 -0 -0 0 0 0 0 0 0
0 0 0 0 0 0 0 0 0 0 0 0 0 0 0 0 0 0 0 0 0 0 0 0 0 0 0 0 0 0 0 0 -0 0 0 0 0 -0 -0 -0 -0 -0 -0 -0 0 0 0 0 0
0 0 0 0 0 0 0 0 0 0 0 0 0 0 0 0 0 0 0 0 0 0 0 0 0 0 0 0 0 0 0 0 -0 -0 -0 0 0 0 -0 -0 -0 -0 -0 -0 0 0 0 0 0
0 0 0 0 0 0 0 0 0 0 0 0 0 0 0 0 0 0 0 0 0 0 0 0 0 0 0 0 0 0 0 0 0 0 -0 0 0 0 0 -0 -0 -0 -0 -0 -0 0 0 0 0
0 0 0 0 0 0 0 0 0 0 0 0 0 0 0 0 0 0 0 0 0 0 0 0 0 0 0 0 0 0 0 0 0 0 0 0 0 0 0 -0 -0 -0 -0 -0 -0 0 0 0 0
0 0 0 0 0 0 0 0 0 0 0 0 0 0 0 0 0 0 0 0 0 0 0 0 0 0 0 0 0 0 0 0 0 0 0 0 0 0 0 0 0 -0 -0 -0 -0 0 0 0 0
Wind_Speed_500mb
6 6 11 6 4 4 11 10 3 17 10 20 16 11 4 11 10 4 15 18 34 42 35 31 26 23 23 28 32 30 28 28 29 29 30 31 30 30 32 34 35 33 34 32 30 28 28 29 34
8 6 5 11 3 3 8 7 16 14 14 12 9 8 10 9 30 11 24 39 43 33 23 30 22 24 26 27 30 32 32 31 34 35 37 35 35 36 34 34 33 34 33 34 32 32 32 35 35
8 6 8 5 4 10 7 14 16 9 12 13 13 7 7 13 29 20 38 45 45 21 31 28 28 27 27 33 32 34 38 39 39 41 42 42 41 41 40 38 35 31 33 32 33 34 37 39 38
6 8 12 2 11 10 10 17 20 17 14 10 9 4 17 42 26 26 32 36 41 41 24 35 30 33 37 36 40 45 40 43 44 45 46 47 47 44 44 40 37 32 31 30 32 34 40 41 43
15 11 7 6 8 9 10 19 14 2 10 19 13 11 41 50 37 43 49 38 31 26 22 29 37 31 36 41 46 47 51 50 51 53 52 52 52 51 47 42 36 35 35 35 39 35 42 45 47
9 7 6 3 10 12 14 21 11 27 15 24 9 10 31 52 47 42 34 35 36 35 35 35 35 34 28 37 45 50 54 53 56 57 57 57 56 55 53 49 44 40 41 41 41 39 43 48 50
7 7 7 9 8 6 13 16 23 16 29 19 17 9 27 57 43 37 32 24 27 30 30 27 30 37 41 35 38 49 53 59 58 60 62 62 62 60 58 55 50 48 46 43 42 44 47 52 54
7 3 9 8 11 6 10 7 20 17 14 24 20 15 17 43 36 34 39 44 47 49 48 41 33 34 33 41 40 39 47 55 63 63 68 69 65 64 60 58 55 50 49 47 47 47 52 56 57
7 5 4 8 9 8 16 16 24 4 34 39 42 37 24 23 26 33 40 43 46 51 59 59 58 53 36 40 41 40 47 52 55 63 67 69 70 68 63 62 60 56 53 53 51 49 56 60 60
4 4 9 11 15 14 23 15 11 14 32 21 33 28 27 26 36 45 51 55 57 57 58 64 65 61 61 51 41 43 48 45 57 56 57 63 67 73 66 66 63 61 58 55 53 52 55 59 65
5 4 9 9 20 18 9 16 4 14 13 30 30 29 29 35 42 50 53 55 56 57 56 58 61 64 65 66 64 51 49 51 53 55 61 63 69 73 72 68 65 64 55 54 54 51 57 66 71
7 6 5 6 14 10 6 7 31 33 27 30 29 27 31 41 47 49 51 53 53 58 62 62 64 63 66 70 68 62 63 55 52 60 62 67 71 70 74 73 75 68 62 57 57 54 59 63 71
9 8 2 11 7 3 7 6 25 37 40 30 29 29 32 33 36 40 44 47 55 59 62 67 67 73 78 78 74 70 67 63 59 61 67 72 72 74 77 72 77 73 67 62 61 55 60 74 76
4 9 20 5 5 6 10 4 17 42 42 34 27 26 25 27 34 43 51 52 60 64 60 70 81 83 86 92 95 87 71 67 68 61 65 70 77 82 77 75 73 76 70 66 62 62 65 73 64
7 6 11 13 9 6 13 9 15 42 37 31 24 20 23 25 32 41 49 54 62 67 67 72 83 94 93 95 98 100 92 71 68 69 64 73 74 85 85 79 77 80 76 71 66 65 63 74 67
7 6 9 17 20 15 6 8 15 25 36 29 21 19 21 25 31 43 49 54 59 64 63 69 74 86 88 93 94 90 92 91 69 72 69 65 73 80 85 84 86 86 82 78 72 70 67 75 77
10 6 16 3 27 11 14 8 23 29 38 28 19 19 19 22 32 39 44 48 52 57 67 78 75 77 77 83 88 87 83 82 76 74 78 74 63 67 82 84 87 95 101 88 83 80 85 89 89
7 12 11 11 5 15 13 19 14 32 37 31 21 15 17 22 30 37 38 39 49 59 61 78 79 83 80 86 82 89 89 81 84 77 86 83 72 69 63 80 94 94 122 98 90 88 89 82 77
10 13 20 19 7 1 14 15 15 36 35 31 20 14 12 20 29 34 32 42 67 68 71 84 82 86 86 86 86 88 89 91 83 89 82 91 70 75 84 61 76 98 86 99 92 85 92 85 84
11 18 22 11 9 6 19 31 13 30 32 33 20 9 11 24 31 31 35 52 77 77 84 92 90 94 96 88 89 95 94 91 88 84 84 91 88 83 89 96 78 90 105 90 92 98 99 97 100
13 16 10 8 14 20 33 28 19 17 21 24 19 8 15 27 27 28 37 58 86 83 86 90 95 98 100 88 88 110 92 89 83 88 82 82 82 93 83 82 109 75 94 107 118 113 110 108 101
10 8 7 15 10 8 13 14 7 28 21 19 21 15 16 25 26 32 45 79 81 79 85 91 92 102 94 82 97 85 88 99 87 89 88 89 80 79 83 57 98 101 75 88 110 123 113 108 105
6 4 12 19 22 20 19 12 9 39 26 22 20 13 20 22 27 38 60 71 79 78 86 91 97 95 94 98 90 91 91 92 105 96 85 91 83 76 82 75 63 95 80 88 106 108 105 120 114
13 13 18 25 16 9 16 11 9 20 29 20 16 18 18 22 29 54 72 72 77 83 89 88 93 99 101 99 111 96 95 83 77 82 91 90 84 76 75 83 66 73 105 71 91 111 109 125 122
7 9 8 10 2 12 11 9 15 12 19 20 16 18 21 29 52 57 67 75 77 90 86 99 112 120 122 115 100 90 94 95 95 77 68 82 78 71 77 82 59 66 73 80 74 113 106 131 123
4 1 8 13 6 10 15 14 9 26 37 27 20 22 26 36 38 54 63 74 79 80 92 102 112 125 124 118 105 93 88 88 86 88 84 72 63 74 76 76 76 64 72 85 92 99 120 104 136
8 8 3 4 5 5 10 11 10 23 17 18 18 26 25 29 42 55 68 75 69 83 92 99 103 121 112 110 105 95 88 86 84 82 89 87 61 60 75 79 84 72 61 51 78 25 122 107 102
3 5 7 2 6 12 10 14 9 16 10 10 10 15 21 35 51 57 66 62 77 80 96 96 103 102 104 113 92 100 88 90 93 83 84 85 80 57 62 76 78 73 64 63 68 92 76 110 108
7 7 8 2 8 9 7 9 13 15 13 6 4 17 32 40 49 61 68 67 79 76 89 100 111 112 112 103 107 100 97 86 79 85 84 73 67 67 53 65 81 71 61 63 56 64 52 108 114
2 13 18 9 11 7 6 29 8 7 17 17 6 15 25 40 53 70 63 81 84 86 98 108 122 124 121 116 114 98 108 85 93 74 73 71 73 71 60 43 65 64 60 58 53 54 76 100 131
Wind_Direction_500mb
35 76 49 273 298 191 68 88 252 36 26 38 7 18 306 251 11 33 50 358 341 334 325 330 323 316 289 271 266 265 262 263 266 268 268 278 283 282 276 268 257 255 260 252 249 241 231 223 225
29 18 25 278 243 152 95 63 50 55 41 4 344 8 24 17 38 23 354 338 340 329 323 309 317 313 299 285 282 273 265 261 263 267 274 276 279 282 286 275 262 261 258 258 246 238 226 222 223
44 23 281 227 272 45 55 55 46 71 86 30 4 19 55 10 25 29 356 343 346 347 325 307 305 296 292 292 287 279 273 266 264 267 271 273 276 279 287 280 269 258 257 254 251 237 223 223 220
36 277 267 264 48 91 44 57 27 11 116 108 36 33 67 48 40 6 337 348 354 356 341 320 301 292 285 278 280 282 273 270 268 268 270 271 275 276 283 281 269 264 258 257 251 241 224 224 222
341 276 265 236 108 93 78 59 23 10 41 57 38 352 75 26 12 3 6 358 353 343 326 302 315 304 285 279 279 278 279 275 270 269 269 270 271 274 274 277 269 261 259 253 258 247 227 224 224
289 245 290 340 82 89 84 40 328 25 4 50 55 2 57 18 14 12 21 19 13 1 354 344 328 323 308 281 275 278 280 277 275 271 270 270 270 271 270 269 267 260 261 255 253 248 236 225 227
304 327 322 342 75 147 77 13 45 349 47 31 358 335 34 22 16 8 7 5 4 0 348 344 342 332 314 301 283 273 273 275 275 274 273 270 269 266 267 265 262 261 258 256 254 246 239 227 227
331 282 280 80 40 70 96 356 74 34 65 84 35 33 19 19 15 19 21 22 23 23 23 13 339 318 321 305 296 292 274 270 271 272 271 272 267 265 263 262 259 258 256 257 253 250 237 227 228
338 294 272 39 18 22 63 40 37 335 76 59 58 68 56 12 13 18 18 23 25 25 23 20 16 14 335 308 304 296 289 282 277 272 265 264 265 261 261 260 259 258 255 256 255 250 237 226 227
294 304 29 12 22 18 13 49 33 69 63 44 63 56 48 33 37 35 30 25 22 19 19 16 16 13 10 1 327 298 282 286 285 281 273 268 261 262 261 261 257 255 254 251 253 248 238 224 225
351 312 6 16 34 19 335 57 28 118 55 67 79 68 55 44 41 36 29 26 21 14 9 10 9 10 9 4 1 344 322 282 281 281 277 270 264 262 260 257 254 255 254 243 244 239 226 221 223
287 68 350 11 21 11 9 297 86 76 89 105 83 71 54 44 37 31 26 20 14 11 6 3 2 360 359 359 358 349 347 328 288 276 274 272 267 258 260 253 251 249 248 243 239 237 220 221 225
214 109 229 283 330 30 318 115 130 99 108 99 85 73 59 49 36 24 21 15 7 10 3 354 358 352 348 343 344 343 339 331 329 286 273 269 271 262 257 252 250 246 244 239 234 231 216 214 218
17 298 272 236 117 144 3 347 160 115 123 100 91 80 66 47 34 23 18 12 5 3 1 348 347 346 344 342 338 335 331 327 320 316 281 275 268 266 260 253 246 244 242 233 231 230 219 213 209
282 276 119 189 179 151 338 216 194 122 120 105 89 77 50 36 26 19 12 5 2 1 355 348 340 338 338 339 335 330 327 323 312 308 303 280 272 269 263 256 244 240 240 231 225 224 219 217 203
243 212 199 168 191 163 110 285 103 131 131 110 98 70 43 28 20 6 6 357 358 357 351 344 340 335 333 332 330 328 322 320 313 301 297 290 277 270 267 259 249 237 235 229 220 216 213 203 198
214 316 321 280 187 143 185 267 118 134 132 125 105 67 43 31 17 6 1 357 353 350 340 339 339 330 326 325 329 321 316 312 314 300 298 293 291 277 267 257 249 242 232 223 220 216 211 215 221
324 304 295 285 185 200 264 250 121 143 140 134 107 83 50 29 14 2 356 351 352 347 340 337 335 338 325 318 316 326 315 304 306 306 295 297 297 288 278 264 254 249 217 213 214 217 217 222 226
271 261 270 277 128 189 244 261 265 150 145 137 123 101 59 31 6 1 356 351 344 347 335 339 331 329 324 316 313 316 304 304 298 303 297 300 293 286 282 280 267 257 232 221 210 215 212 212 210
270 269 273 286 146 340 267 260 135 164 167 153 134 114 48 13 4 358 352 347 347 344 337 338 330 326 322 315 308 311 306 297 295 296 298 298 297 295 302 269 285 256 236 216 218 209 201 201 195
281 280 307 285 313 274 273 269 151 160 146 151 159 146 39 13 357 352 344 348 347 343 334 331 328 325 321 316 307 308 303 297 293 294 293 294 297 302 306 275 270 299 243 215 211 207 199 194 197
280 51 317 279 303 240 54 286 104 167 172 181 161 85 27 1 355 343 344 349 342 334 330 329 329 322 322 313 312 310 303 298 296 290 291 291 294 295 302 299 271 273 279 244 205 205 202 204 194
251 343 257 259 251 284 254 255 287 158 188 181 142 78 22 358 349 344 354 343 333 331 330 328 327 325 316 311 311 310 304 295 300 295 290 289 290 291 298 305 284 277 279 262 205 198 203 205 197
323 287 273 251 256 266 258 226 217 179 197 142 126 52 21 356 348 353 347 331 332 330 330 331 329 323 320 313 315 305 292 296 302 297 292 289 287 289 284 295 302 266 271 299 232 205 207 199 204
227 290 324 332 26 230 85 334 246 142 104 125 104 44 16 360 360 346 334 331 331 332 332 326 332 331 329 324 322 315 309 293 290 295 300 294 282 286 284 294 300 280 278 275 250 204 205 204 204
203 9 163 259 261 267 14 252 245 127 130 135 67 33 11 2 345 336 331 330 329 331 326 328 330 332 331 328 322 318 313 311 299 288 287 296 304 286 281 286 294 300 283 273 285 233 207 206 198
147 198 360 331 62 353 232 262 76 139 152 97 33 14 2 346 339 335 331 328 327 326 324 326 326 330 329 326 322 318 314 311 307 299 289 282 293 299 285 289 291 302 289 269 264 297 204 208 198
263 155 85 143 293 266 251 252 232 185 159 81 18 352 347 346 340 332 326 326 325 322 323 325 325 325 326 326 320 318 312 307 309 305 294 280 285 295 290 279 284 295 291 287 267 267 257 200 200
165 224 223 338 196 220 293 249 154 158 167 131 343 357 354 338 331 327 327 321 325 321 323 325 327 328 328 327 321 322 310 314 307 301 304 286 280 280 291 276 280 289 293 285 261 262 237 205 200
301 220 181 165 240 253 246 261 328 335 148 126 47 1 338 332 329 328 322 323 325 324 326 328 330 329 331 325 324 318 317 305 309 306 305 297 279 277 272 287 268 270 277 294 263 253 264 210 203
Wind_Speed_850mb
6 6 11 6 4 4 11 10 3 17 10 20 16 11 4 11 10 4 15 18 34 42 35 31 26 23 23 28 32 30 28 28 29 29 30 31 30 30 32 34 35 33 34 32 30 28 28 29 34
8 6 5 11 3 3 8 7 16 14 14 12 9 8 10 9 30 11 24 39 43 33 23 30 22 24 26 27 30 32 32 31 34 35 37 35 35 36 34 34 33 34 33 34 32 32 32 35 35
8 6 8 5 4 10 7 14 16 9 12 13 13 7 7 13 29 20 38 45 45 21 31 28 28 27 27 33 32 34 38 39 39 41 42 42 41 41 40 38 35 31 33 32 33 34 37 39 38
6 8 12 2 11 10 10 17 20 17 14 10 9 4 17 42 26 26 32 36 41 41 24 35 30 33 37 36 40 45 40 43 44 45 46 47 47 44 44 40 37 32 31 30 32 34 40 41 43
15 11 7 6 8 9 10 19 14 2 10 19 13 11 41 50 37 43 49 38 31 26 22 29 37 31 36 41 46 47 51 50 51 53 52 52 52 51 47 42 36 35 35 35 39 35 42 45 47
9 7 6 3 10 12 14 21 11 27 15 24 9 10 31 52 47 42 34 35 36 35 35 35 35 34 28 37 45 50 54 53 56 57 57 57 56 55 53 49 44 40 41 41 41 39 43 48 50
7 7 7 9 8 6 13 16 23 16 29 19 17 9 27 57 43 37 32 24 27 30 30 27 30 37 41 35 38 49 53 59 58 60 62 62 62 60 58 55 50 48 46 43 42 44 47 52 54
7 3 9 8 11 6 10 7 20 17 14 24 20 15 17 43 36 34 39 44 47 49 48 41 33 34 33 41 40 39 47 55 63 63 68 69 65 64 60 58 55 50 49 47 47 47 52 56 57
7 5 4 8 9 8 16 16 24 4 34 39 42 37 24 23 26 33 40 43 46 51 59 59 58 53 36 40 41 40 47 52 55 63 67 69 70 68 63 62 60 56 53 53 51 49 56 60 60
4 4 9 11 15 14 23 15 11 14 32 21 33 28 27 26 36 45 51 55 57 57 58 64 65 61 61 51 41 43 48 45 57 56 57 63 67 73 66 66 63 61 58 55 53 52 55 59 65
5 4 9 9 20 18 9 16 4 14 13 30 30 29 29 35 42 50 53 55 56 57 56 58 61 64 65 66 64 51 49 51 53 55 61 63 69 73 72 68 65 64 55 54 54 51 57 66 71
7 6 5 6 14 10 6 7 31 33 27 30 29 27 31 41 47 49 51 53 53 58 62 62 64 63 66 70 68 62 63 55 52 60 62 67 71 70 74 73 75 68 62 57 57 54 59 63 71
9 8 2 11 7 3 7 6 25 37 40 30 29 29 32 33 36 40 44 47 55 59 62 67 67 73 78 78 74 70 67 63 59 61 67 72 72 74 77 72 77 73 67 62 61 55 60 74 76
4 9 20 5 5 6 10 4 17 42 42 34 27 26 25 27 34 43 51 52 60 64 60 70 81 83 86 92 95 87 71 67 68 61 65 70 77 82 77 75 73 76 70 66 62 62 65 73 64
7 6 11 13 9 6 13 9 15 42 37 31 24 20 23 25 32 41 49 54 62 67 67 72 83 94 93 95 98 100 92 71 68 69 64 73 74 85 85 79 77 80 76 71 66 65 63 74 67
7 6 9 17 20 15 6 8 15 25 36 29 21 19 21 25 31 43 49 54 59 64 63 69 74 86 88 93 94 90 92 91 69 72 69 65 73 80 85 84 86 86 82 78 72 70 67 75 77
10 6 16 3 27 11 14 8 23 29 38 28 19 19 19 22 32 39 44 48 52 57 67 78 75 77 77 83 88 87 83 82 76 74 78 74 63 67 82 84 87 95 101 88 83 80 85 89 89
7 12 11 11 5 15 13 19 14 32 37 31 21 15 17 22 30 37 38 39 49 59 61 78 79 83 80 86 82 89 89 81 84 77 86 83 72 69 63 80 94 94 122 98 90 88 89 82 77
10 13 20 19 7 1 14 15 15 36 35 31 20 14 12 20 29 34 32 42 67 68 71 84 82 86 86 86 86 88 89 91 83 89 82 91 70 75 84 61 76 98 86 99 92 85 92 85 84
11 18 22 11 9 6 19 31 13 30 32 33 20 9 11 24 31 31 35 52 77 77 84 92 90 94 96 88 89 95 94 91 88 84 84 91 88 83 89 96 78 90 105 90 92 98 99 97 100
13 16 10 8 14 20 33 28 19 17 21 24 19 8 15 27 27 28 37 58 86 83 86 90 95 98 100 88 88 110 92 89 83 88 82 82 82 93 83 82 109 75 94 107 118 113 110 108 101
10 8 7 15 10 8 13 14 7 28 21 19 21 15 16 25 26 32 45 79 81 79 85 91 92 102 94 82 97 85 88 99 87 89 88 89 80 79 83 57 98 101 75 88 110 123 113 108 105
6 4 12 19 22 20 19 12 9 39 26 22 20 13 20 22 27 38 60 71 79 78 86 91 97 95 94 98 90 91 91 92 105 96 85 91 83 76 82 75 63 95 80 88 106 108 105 120 114
13 13 18 25 16 9 16 11 9 20 29 20 16 18 18 22 29 54 72 72 77 83 89 88 93 99 101 99 111 96 95 83 77 82 91 90 84 76 75 83 66 73 105 71 91 111 109 125 122
7 9 8 10 2 12 11 9 15 12 19 20 16 18 21 29 52 57 67 75 77 90 86 99 112 120 122 115 100 90 94 95 95 77 68 82 78 71 77 82 59 66 73 80 74 113 106 131 123
4 1 8 13 6 10 15 14 9 26 37 27 20 22 26 36 38 54 63 74 79 80 92 102 112 125 124 118 105 93 88 88 86 88 84 72 63 74 76 76 76 64 72 85 92 99 120 104 136
8 8 3 4 5 5 10 11 10 23 17 18 18 26 25 29 42 55 68 75 69 83 92 99 103 121 112 110 105 95 88 86 84 82 89 87 61 60 75 79 84 72 61 51 78 25 122 107 102
3 5 7 2 6 12 10 14 9 16 10 10 10 15 21 35 51 57 66 62 77 80 96 96 103 102 104 113 92 100 88 90 93 83 84 85 80 57 62 76 78 73 64 63 68 92 76 110 108
7 7 8 2 8 9 7 9 13 15 13 6 4 17 32 40 49 61 68 67 79 76 89 100 111 112 112 103 107 100 97 86 79 85 84 73 67 67 53 65 81 71 61 63 56 64 52 108 114
2 13 18 9 11 7 6 29 8 7 17 17 6 15 25 40 53 70 63 81 84 86 98 108 122 124 121 116 114 98 108 85 93 74 73 71 73 71 60 43 65 64 60 58 53 54 76 100 131
Wind_Direction_850mb
35 76 49 273 298 191 68 88 252 36 26 38 7 18 306 251 11 33 50 358 341 334 325 330 323 316 289 271 266 265 262 263 266 268 268 278 283 282 276 268 257 255 260 252 249 241 231 223 225
29 18 25 278 243 152 95 63 50 55 41 4 344 8 24 17 38 23 354 338 340 329 323 309 317 313 299 285 282 273 265 261 263 267 274 276 279 282 286 275 262 261 258 258 246 238 226 222 223
44 23 281 227 272 45 55 55 46 71 86 30 4 19 55 10 25 29 356 343 346 347 325 307 305 296 292 292 287 279 273 266 264 267 271 273 276 279 287 280 269 258 257 254 251 237 223 223 220
36 277 267 264 48 91 44 57 27 11 116 108 36 33 67 48 40 6 337 348 354 356 341 320 301 292 285 278 280 282 273 270 268 268 270 271 275 276 283 281 269 264 258 257 251 241 224 224 222
341 276 265 236 108 93 78 59 23 10 41 57 38 352 75 26 12 3 6 358 353 343 326 302 315 304 285 279 279 278 279 275 270 269 269 270 271 274 274 277 269 261 259 253 258 247 227 224 224
289 245 290 340 82 89 84 40 328 25 4 50 55 2 57 18 14 12 21 19 13 1 354 344 328 323 308 281 275 278 280 277 275 271 270 270 270 271 270 269 267 260 261 255 253 248 236 225 227
304 327 322 342 75 147 77 13 45 349 47 31 358 335 34 22 16 8 7 5 4 0 348 344 342 332 314 301 283 273 273 275 275 274 273 270 269 266 267 265 262 261 258 256 254 246 239 227 227
331 282 280 80 40 70 96 356 74 34 65 84 35 33 19 19 15 19 21 22 23 23 23 13 339 318 321 305 296 292 274 270 271 272 271 272 267 265 263 262 259 258 256 257 253 250 237 227 228
338 294 272 39 18 22 63 40 37 335 76 59 58 68 56 12 13 18 18 23 25 25 23 20 16 14 335 308 304 296 289 282 277 272 265 264 265 261 261 260 259 258 255 256 255 250 237 226 227
294 304 29 12 22 18 13 49 33 69 63 44 63 56 48 33 37 35 30 25 22 19 19 16 16 13 10 1 327 298 282 286 285 281 273 268 261 262 261 261 257 255 254 251 253 248 238 224 225
351 312 6 16 34 19 335 57 28 118 55 67 79 68 55 44 41 36 29 26 21 14 9 10 9 10 9 4 1 344 322 282 281 281 277 270 264 262 260 257 254 255 254 243 244 239 226 221 223
287 68 350 11 21 11 9 297 86 76 89 105 83 71 54 44 37 31 26 20 14 11 6 3 2 360 359 359 358 349 347 328 288 276 274 272 267 258 260 253 251 249 248 243 239 237 220 221 225
214 109 229 283 330 30 318 115 130 99 108 99 85 73 59 49 36 24 21 15 7 10 3 354 358 352 348 343 344 343 339 331 329 286 273 269 271 262 257 252 250 246 244 239 234 231 216 214 218
17 298 272 236 117 144 3 347 160 115 123 100 91 80 66 47 34 23 18 12 5 3 1 348 347 346 344 342 338 335 331 327 320 316 281 275 268 266 260 253 246 244 242 233 231 230 219 213 209
282 276 119 189 179 151 338 216 194 122 120 105 89 77 50 36 26 19 12 5 2 1 355 348 340 338 338 339 335 330 327 323 312 308 303 280 272 269 263 256 244 240 240 231 225 224 219 217 203
243 212 199 168 191 163 110 285 103 131 131 110 98 70 43 28 20 6 6 357 358 357 351 344 340 335 333 332 330 328 322 320 313 301 297 290 277 270 267 259 249 237 235 229 220 216 213 203 198
214 316 321 280 187 143 185 267 118 134 132 125 105 67 43 31 17 6 1 357 353 350 340 339 339 330 326 325 329 321 316 312 314 300 298 293 291 277 267 257 249 242 232 223 220 216 211 215 221
324 304 295 285 185 200 264 250 121 143 140 134 107 83 50 29 14 2 356 351 352 347 340 337 335 338 325 318 316 326 315 304 306 306 295 297 297 288 278 264 254 249 217 213 214 217 217 222 226
271 261 270 277 128 189 244 261 265 150 145 137 123 101 59 31 6 1 356 351 344 347 335 339 331 329 324 316 313 316 304 304 298 303 297 300 293 286 282 280 267 257 232 221 210 215 212 212 210
270 269 273 286 146 340 267 260 135 164 167 153 134 114 48 13 4 358 352 347 347 344 337 338 330 326 322 315 308 311 306 297 295 296 298 298 297 295 302 269 285 256 236 216 218 209 201 201 195
281 280 307 285 313 274 273 269 151 160 146 151 159 146 39 13 357 352 344 348 347 343 334 331 328 325 321 316 307 308 303 297 293 294 293 294 297 302 306 275 270 299 243 215 211 207 199 194 197
280 51 317 279 303 240 54 286 104 167 172 181 161 85 27 1 355 343 344 349 342 334 330 329 329 322 322 313 312 310 303 298 296 290 291 291 294 295 302 299 271 273 279 244 205 205 202 204 194
251 343 257 259 251 284 254 255 287 158 188 181 142 78 22 358 349 344 354 343 333 331 330 328 327 325 316 311 311 310 304 295 300 295 290 289 290 291 298 305 284 277 279 262 205 198 203 205 197
323 287 273 251 256 266 258 226 217 179 197 142 126 52 21 356 348 353 347 331 332 330 330 331 329 323 320 313 315 305 292 296 302 297 292 289 287 289 284 295 302 266 271 299 232 205 207 199 204
227 290 324 332 26 230 85 334 246 142 104 125 104 44 16 360 360 346 334 331 331 332 332 326 332 331 329 324 322 315 309 293 290 295 300 294 282 286 284 294 300 280 278 275 250 204 205 204 204
203 9 163 259 261 267 14 252 245 127 130 135 67 33 11 2 345 336 331 330 329 331 326 328 330 332 331 328 322 318 313 311 299 288 287 296 304 286 281 286 294 300 283 273 285 233 207 206 198
147 198 360 331 62 353 232 262 76 139 152 97 33 14 2 346 339 335 331 328 327 326 324 326 326 330 329 326 322 318 314 311 307 299 289 282 293 299 285 289 291 302 289 269 264 297 204 208 198
263 155 85 143 293 266 251 252 232 185 159 81 18 352 347 346 340 332 326 326 325 322 323 325 325 325 326 326 320 318 312 307 309 305 294 280 285 295 290 279 284 295 291 287 267 267 257 200 200
165 224 223 338 196 220 293 249 154 158 167 131 343 357 354 338 331 327 327 321 325 321 323 325 327 328 328 327 321 322 310 314 307 301 304 286 280 280 291 276 280 289 293 285 261 262 237 205 200
301 220 181 165 240 253 246 261 328 335 148 126 47 1 338 332 329 328 322 323 325 324 326 328 330 329 331 325 324 318 317 305 309 306 305 297 279 277 272 287 268 270 277 294 263 253 264 210 203